,

(GMT )
Bjornoya

Weather History for ENBJ - October, 2016

Change the Weather History Date:

Friday, October 21, 2016

  Actual Average Record
Temperature  
Mean Temperature 44 °F -  
Max Temperature 45 °F - - ()
Min Temperature 43 °F - - ()
Degree Days  
Heating Degree Days 21    
Moisture  
Dew Point 42 °F    
Average Humidity 88    
Maximum Humidity 95    
Minimum Humidity 75    
Precipitation  
Precipitation 0.00 in - - ()
Sea Level Pressure  
Sea Level Pressure 30.28 in    
Wind  
Wind Speed 20 mph ()    
Max Wind Speed 25 mph    
Max Gust Speed -    
Visibility 10.1 miles    
Events Rain    
T = Trace of Precipitation, MM = Missing Value Source: Averaged Metar Reports

Daily Weather History Graph

Daily Weather History Graph

Search for Another Location

Airport or City:

Astronomy

Oct. 21, 2016 Rise Set
Actual Time 9:07 AM CEST 3:47 PM CEST
Civil Twilight 7:36 AM CEST 5:17 PM CEST
Nautical Twilight 6:05 AM CEST 6:49 PM CEST
Astronomical Twilight 4:31 AM CEST 8:21 PM CEST
Moon No Moon Rise No Moon Set
Length of Visible Light 9h 41m
Length of Day
6h 40m
Waning Gibbous, 65% of the Moon is Illuminated
Oct 21
Waning Gibbous
Oct 22
Last Quarter
Oct 30
New
Nov 7
First Quarter
Nov 14
Full

Hourly Weather History & Observations

Time (CEST) Temp. Dew Point Humidity Pressure Visibility Wind Dir Wind Speed Gust Speed Precip Events Conditions
12:00 AM 44 °F 43 °F 94% 30.25 in 12 mi South 20.1 mph - -   Partly Cloudy
1:00 AM 44 °F 43 °F 94% 30.24 in 12 mi South 22.4 mph - -   Partly Cloudy
2:00 AM 44 °F 43 °F 95% 30.23 in 12 mi South 24.6 mph - -   Partly Cloudy
3:00 AM 44 °F 42 °F 92% 30.22 in 12 mi South 24.6 mph - -   Partly Cloudy
4:00 AM 44 °F 43 °F 95% 30.22 in 12 mi South 24.6 mph - -   Partly Cloudy
5:00 AM 45 °F 43 °F 88% 30.22 in 12 mi SSW 24.6 mph - -   Partly Cloudy
6:00 AM 44 °F 41 °F 86% 30.22 in 16 mi SSW 22.4 mph - -   Partly Cloudy
7:00 AM 44 °F 42 °F 89% 30.22 in 16 mi South 22.4 mph - -   Partly Cloudy
8:00 AM 45 °F 42 °F 85% 30.24 in 12 mi SSW 24.6 mph - -   Partly Cloudy
9:00 AM 44 °F 41 °F 86% 30.24 in 12 mi SSW 22.4 mph - -   Partly Cloudy
10:00 AM 44 °F 42 °F 89% 30.25 in 12 mi SSW 22.4 mph - -   Partly Cloudy
11:00 AM 44 °F 41 °F 87% 30.27 in 12 mi SW 24.6 mph - - Rain Light Rain Showers
12:00 PM 44 °F 42 °F 88% 30.27 in 12 mi SSW 22.4 mph - - Rain Light Rain Showers
1:00 PM 44 °F 42 °F 92% 30.27 in 6 mi SSW 24.6 mph - -   Partly Cloudy
2:00 PM 45 °F 43 °F 89% 30.28 in 6 mi SSW 24.6 mph - -   Mostly Cloudy
3:00 PM 45 °F 43 °F 88% 30.29 in 6 mi SSW 24.6 mph - -   Mostly Cloudy
4:00 PM 44 °F 43 °F 93% 30.30 in 6 mi SSW 24.6 mph - -   Partly Cloudy
5:00 PM 44 °F 42 °F 91% 30.32 in 7 mi SSW 22.4 mph - -   Partly Cloudy
6:00 PM 44 °F 42 °F 90% 30.33 in 7 mi SSW 22.4 mph - -   Partly Cloudy
7:00 PM 44 °F 42 °F 89% 30.35 in 7 mi SSW 20.1 mph - -   Partly Cloudy
8:00 PM 44 °F 42 °F 89% 30.35 in 12 mi SSW 20.1 mph - -   Partly Cloudy
9:00 PM 45 °F 40 °F 75% 30.37 in 9 mi SSW 22.4 mph - -   Partly Cloudy
10:00 PM 45 °F 40 °F 75% 30.38 in 6 mi SSW 20.1 mph - -   Partly Cloudy
11:00 PM 45 °F 40 °F 76% 30.40 in 6 mi SSW 17.9 mph - -   Partly Cloudy